sat.trackr.live / text

‹ back to catalog

O3B PFM

NORAD 39191 · 2013-031D

PAYLOAD ACTIVE UNKNOWN

§ Identity

Operator
Country
O3B
Launch date
2013-06-25
Launch site
FRGUI
Launch vehicle
Mass (kg)
RCS (m²)
45.13

Purposes: comms

External: N2YO · Heavens-Above · Gunter

§ Orbital elements

Epoch: 2026-09-18T14:06:27.766368Z

Period
287.93 min
Inclination
0.0610°
Eccentricity
0.0004859
Mean motion
5.00116123 rev/d
Perigee alt
8,058.9 km
Apogee alt
8,072.9 km
Semi-major
14,444.0 km
B*
0.0000e+0
RAAN
337.9360°
Arg perigee
174.5571°
Mean anomaly
207.5346°
Rev number
24,134

§ Raw data

O3B PFM1 39191U 13031D   26261.58782137 -.00000028  00000+0  00000+0 0  99982 39191   0.0610 337.9360 0004859 174.5571 207.5346  5.00116123241349

JSON: /api/v1/satellites/39191 · /tle

For live sub-satellite position, see the globe view (requires WebGL).

§ Visibility from observer

Set your observer location to see the next 7 days of passes ≥ 10°. The values pass through the URL so the page stays shareable.

No JS? Fill the form by hand. The geolocation button needs JavaScript.